Regional Weather Roundup
Issued by NWS Jackson, KY

Home | Current Version | Previous Version | Graphics & Text | Print | Product List | Glossary On
Versions: 1 2 3 4 5 6 7 8 9 10 11 12 13 14 15 16 17 18 19 20 21 22 23 24 25 26 27 28 29 30 31 32 33 34 35 36 37 38 39 40 41 42 43 44 45 46 47 48 49 50
000
ASUS43 KJKL 210519
RWRJKL

EAST KENTUCKY HOURLY WEATHER ROUNDUP
NATIONAL WEATHER SERVICE JACKSON KY
1200 AM EST SUN DEC 21 2014

NOTE: "FAIR" INDICATES FEW OR NO CLOUDS BELOW 12,000 FEET WITH
NO SIGNIFICANT WEATHER AND/OR OBSTRUCTIONS TO VISIBILITY.

* THESE REPORTS ARE NOT UNDER NWS QUALITY CONTROL AND MAY NOT
  REPORT WEATHER SUCH AS PRECIPITATION AND FOG.

KYZ079-080-083-085-087-088-110-112-115-119-120-210600
...EASTERN KENTUCKY...

CITY           SKY/WX    TMP DP  RH WIND       PRES   REMARKS
JACKSON        CLEAR     29  23  78 CALM      30.25S
LONDON         CLEAR     28  32 100 CALM      30.26R
SOMERSET*      CLEAR     27  27 100 CALM      30.29R
MONTICELLO*    CLEAR     20  18  92 CALM      30.30S FOG
MIDDLESBORO*   CLEAR     29  27  92 CALM      30.26S
HARLAN APT*    CLEAR     32  28  86 CALM      30.23F
BLACK MTN*       N/A     28  27  93 SW2         N/A
PIKEVILLE APT* CLEAR     30  25  80 N3        30.24S
BIG SANDY*     MOCLDY    31  26  81 CALM      30.25F
MOREHEAD APT*  CLOUDY    32  27  80 CALM      30.30S
ASHLAND*       CLOUDY    32  25  74 CALM      30.28S
$$

KYZ035-036-041-042-044-050-067-078-099-210600
...CENTRAL KENTUCKY...

CITY           SKY/WX    TMP DP  RH WIND       PRES   REMARKS
MT STERLING*   CLOUDY    32  28  86 CALM      30.29S
FLEMING/MASON* CLOUDY    30  27  86 CALM      30.30S
DANVILLE*      CLEAR     23  21  93 CALM      30.29S FOG
RICHMOND*      CLEAR     25  23  93 CALM      30.27S
LEXINGTON      CLEAR     26  23  88 NE3       30.28S FOG
FRANKFORT      CLEAR     24  21  88 CALM      30.28S
$$

KYZ091>093-OHZ055-061-077-WVZ005-015-034-035-042-210600
...SOUTHERN OHIO/WEST VIRGINIA...

CITY           SKY/WX    TMP DP  RH WIND       PRES   REMARKS
COVINGTON      CLOUDY    32  24  72 N3        30.29S
COLUMBUS       CLOUDY    30  24  78 CALM      30.28S
DAYTON         MOCLDY    25  21  85 CALM      30.29R
WILMINGTON     CLEAR     25  22  88 CALM      30.28R FOG
HUNTINGTON     CLOUDY    32  26  78 CALM      30.27F
CHARLESTON     CLOUDY    33  26  75 CALM      30.26F
PINEVILLE*     CLOUDY    35  34  97 MISG      30.27S
BECKLEY        CLOUDY    32  26  78 CALM      30.19S
BLUEFIELD      CLOUDY    33  30  88 CALM      30.18F
$$

VAZ002-007-008-TNZ017-027-036-066-071-210600
...SOUTHWEST VIRGINIA/EAST TENNESSEE...

CITY           SKY/WX    TMP DP  RH WIND       PRES   REMARKS
WISE*          CLOUDY    34  30  86 N3        30.19F
JONESVILLE*    CLEAR     30  28  93 CALM      30.25S
ABINGDON*      CLOUDY    39  38  94 CALM      30.20F
BRISTOL        CLOUDY    39  37  92 CALM      30.22F FOG
KNOXVILLE      CLOUDY    40  35  83 N7        30.23S
OAK RIDGE      CLEAR     32  29  88 CALM      30.26R
CROSSVILLE     CLEAR     32  24  72 NE3       30.23R
NASHVILLE      PTCLDY    30  27  88 CALM      30.28R
$$

...KEY TO REMARKS...
VSB - VISIBILITY IN MILES
WCI - WIND CHILL INDEX
HX  - HEAT INDEX

$$


USA.gov is the U.S. government's official web portal to all federal, state and local government web resources and services.